Wetbulb
57.92 57.94 57.95 58.21 58.42 58.47 58.59 58.72 58.90 59.05 59.30 59.62 59.97 59.90 59.66 59.62 58.94 57.33 53.43 58.08 60.08 64.30 63.63 54.53 54.91 54.82 54.22 52.89 52.41 52.37 52.17 50.34 49.41 50.41 51.09 58.45 59.36 61.07 63.43 64.44 66.43 67.33 66.76 69.61 72.54
57.66 57.79 58.01 58.11 58.47 58.34 58.33 58.42 58.56 58.77 59.04 59.34 59.71 59.51 59.25 59.56 56.52 55.87 63.64 64.32 66.03 66.27 54.43 53.65 53.11 55.19 53.00 51.41 52.10 52.36 52.44 50.61 52.92 52.93 51.78 58.12 59.65 60.56 60.39 61.68 64.56 65.26 68.40 71.42 71.94
57.51 57.81 58.01 58.10 58.31 58.08 58.11 58.21 58.32 58.67 59.17 59.17 59.12 59.25 59.20 59.15 54.32 55.02 67.07 66.96 67.02 63.96 55.18 54.87 55.13 54.30 51.79 51.56 50.32 50.72 51.03 51.51 51.83 53.13 53.47 56.26 58.47 61.09 59.86 59.49 64.77 64.74 67.47 70.11 70.65
57.20 57.49 57.72 57.84 57.81 57.92 58.01 58.33 58.65 59.04 59.21 58.86 58.88 59.04 59.46 57.79 47.87 55.13 69.27 68.59 67.76 57.25 54.48 54.15 54.45 52.72 50.82 50.25 50.85 49.28 50.98 50.75 50.89 50.65 51.79 56.38 59.86 58.76 60.90 62.21 65.68 67.76 69.43 69.85 69.70
56.79 56.97 57.26 57.22 57.50 57.60 57.67 57.90 58.40 58.64 58.37 58.35 58.74 59.28 58.36 51.58 52.39 60.53 68.26 66.91 56.86 54.77 53.92 54.11 52.81 51.74 49.92 50.18 50.14 49.75 51.02 50.88 51.55 49.68 53.14 58.03 58.80 59.09 59.97 63.07 64.76 67.84 68.97 69.09 69.49
56.84 56.67 56.67 57.03 57.17 57.43 57.37 57.16 57.15 57.40 57.83 58.35 59.07 59.29 53.78 49.59 55.90 59.82 58.89 56.25 55.93 54.94 54.67 54.59 53.04 53.74 50.92 49.78 50.20 50.38 50.30 50.92 50.40 52.87 57.82 57.91 57.70 58.26 60.85 62.91 63.90 66.60 67.82 68.85 69.11
56.94 56.60 56.52 56.97 57.23 57.43 57.43 56.79 56.58 57.13 57.86 58.65 59.37 58.52 51.35 52.08 56.93 57.44 57.61 56.21 56.55 55.80 53.85 55.19 55.25 52.27 51.40 49.76 50.73 49.78 49.76 51.28 50.14 50.46 50.95 55.48 53.20 55.84 59.31 62.44 64.24 65.08 67.33 68.23 68.91
56.55 56.28 56.58 56.90 57.17 57.39 57.58 57.13 56.90 57.58 58.25 58.78 60.10 56.37 51.52 55.83 56.94 57.56 57.09 56.76 55.68 56.04 55.42 55.42 55.21 52.41 51.24 51.40 50.00 48.60 48.98 47.27 49.40 51.14 49.87 52.75 48.66 50.61 54.02 62.55 63.24 65.03 66.40 67.44 67.31
56.29 55.85 56.12 56.77 57.01 57.28 56.97 56.22 56.94 57.81 58.28 59.56 57.14 53.79 51.53 59.78 56.53 56.14 58.25 56.42 55.19 53.72 54.22 52.92 52.78 49.91 50.24 48.60 48.09 48.00 46.13 45.80 46.86 50.95 50.92 50.00 49.44 54.13 54.77 59.32 62.03 65.12 65.99 66.80 64.73
56.09 55.51 55.65 55.99 56.58 56.40 55.71 55.69 57.32 58.53 59.46 59.25 57.19 52.71 54.84 54.34 56.44 56.73 55.82 54.92 53.24 53.40 53.14 53.07 51.56 50.76 49.77 49.38 44.69 44.92 45.25 45.72 45.88 48.87 53.06 51.32 51.35 54.63 55.56 57.92 57.92 60.07 64.80 63.55 62.75
56.10 55.37 55.35 55.77 56.05 55.20 54.42 56.73 56.86 54.75 54.58 52.18 53.44 52.59 53.81 56.52 56.70 54.58 54.79 53.83 53.45 53.25 49.84 50.60 50.08 47.45 47.67 47.99 47.01 46.16 45.72 46.12 47.70 49.86 51.62 50.17 51.14 52.87 56.22 56.70 54.87 58.18 60.21 60.47 60.86
55.65 55.46 55.35 55.57 55.34 54.90 55.18 56.74 56.28 56.47 53.10 55.33 53.02 52.49 53.92 55.36 53.42 54.95 55.51 52.34 51.82 49.38 50.50 50.97 48.93 49.44 48.21 47.17 47.28 47.46 47.31 47.08 48.38 49.61 52.01 50.35 50.18 51.91 54.92 55.97 56.38 55.97 58.01 59.43 59.49
54.80 54.68 54.94 54.96 54.25 55.58 56.03 57.20 58.38 57.83 53.24 53.65 54.02 53.42 54.81 55.33 53.21 53.00 54.08 52.03 50.67 49.97 48.88 49.44 49.74 50.25 49.21 48.66 48.67 47.89 47.23 46.87 46.40 48.63 49.56 49.13 48.27 49.95 52.54 56.95 58.03 57.75 57.56 59.28 59.31
54.60 54.33 54.43 54.02 55.07 53.98 57.75 57.41 57.40 57.82 51.81 52.75 54.71 55.61 54.58 54.20 51.57 54.56 54.13 53.60 52.06 49.66 49.43 49.83 51.65 49.46 49.68 48.54 48.64 46.56 48.91 47.96 47.53 47.54 44.48 48.21 42.73 47.99 50.41 53.50 56.28 57.32 58.12 58.48 58.61
54.33 54.51 54.04 53.17 56.47 57.97 58.04 58.61 57.02 60.00 41.78 53.91 53.60 57.41 53.34 52.01 52.44 53.24 55.15 54.36 50.58 49.86 51.33 48.88 49.40 49.39 49.21 48.70 49.51 47.85 50.31 49.07 48.43 47.52 45.46 46.09 44.69 47.04 50.22 50.24 53.93 56.42 57.04 58.20 59.23
53.94 53.96 53.27 55.07 55.93 56.85 58.38 58.08 59.61 50.70 42.26 50.55 51.41 50.35 50.44 51.13 51.41 53.03 53.32 56.36 53.74 51.46 52.06 50.91 52.95 51.79 50.78 50.39 50.55 50.31 49.24 48.26 47.35 46.51 42.25 44.46 45.11 46.31 48.91 49.66 53.09 55.45 55.50 57.15 57.81
53.42 52.83 53.86 55.88 56.15 56.83 57.98 58.13 47.79 45.65 51.96 48.79 49.01 49.68 49.15 48.96 49.93 50.91 51.85 51.58 49.72 47.28 47.38 50.03 49.85 51.91 52.31 49.86 51.01 51.22 48.62 41.31 40.42 40.57 39.60 44.66 44.08 46.77 49.48 52.37 54.51 53.67 53.09 51.83 52.04
52.27 51.29 53.33 57.38 57.28 57.92 58.48 53.57 43.88 47.60 48.78 52.38 50.69 50.70 48.76 50.90 50.80 50.89 49.84 49.17 51.49 49.75 48.20 46.00 44.34 49.82 53.13 50.57 48.31 47.97 46.69 41.75 35.17 37.01 40.23 44.40 42.17 46.70 52.75 55.56 56.03 51.03 49.26 48.99 48.55
50.41 55.32 58.09 58.50 58.37 57.92 55.40 45.67 45.66 48.61 50.70 49.68 50.14 48.62 48.56 50.57 50.60 50.96 49.82 48.83 49.96 50.60 47.75 46.48 45.89 50.70 52.35 52.45 50.67 47.30 46.05 46.44 42.30 41.88 40.35 44.16 45.74 48.05 52.79 53.65 52.21 48.85 48.87 47.87 48.08
51.09 53.29 56.06 56.88 57.55 58.39 50.90 42.80 48.60 51.96 51.56 50.89 46.99 49.07 46.83 48.78 49.27 50.02 49.13 51.17 49.86 51.78 51.91 48.38 44.40 48.59 50.68 52.32 51.98 50.02 49.34 44.30 46.10 37.38 35.77 41.41 41.91 44.32 47.61 50.24 49.30 48.44 48.02 47.79 48.11
50.07 54.95 56.43 56.54 59.09 56.36 49.22 47.87 48.45 52.02 52.22 49.93 48.55 48.25 48.83 48.35 49.21 48.88 48.65 50.59 51.52 51.20 52.61 50.28 47.49 47.01 49.46 47.94 46.74 48.58 46.61 46.56 45.43 43.50 38.42 36.99 41.52 47.91 47.88 50.66 49.78 47.68 48.01 47.72 47.46
48.57 51.14 55.01 56.57 52.65 47.66 48.84 48.04 47.53 51.44 52.88 51.79 51.99 50.83 49.72 48.92 48.48 48.48 48.25 50.10 52.94 52.43 48.64 49.81 48.51 44.66 45.23 47.62 49.20 49.84 46.94 46.55 41.53 39.25 42.73 40.84 41.04 46.47 47.29 48.79 48.60 47.29 46.86 47.45 48.43
47.30 48.53 56.97 56.54 48.06 47.70 49.03 48.37 48.69 49.43 50.35 50.15 49.55 50.55 51.20 48.93 47.32 48.83 49.62 51.90 51.79 51.09 50.15 50.65 46.16 42.44 43.76 46.31 48.23 46.56 48.05 47.43 45.67 44.40 41.41 38.31 40.87 46.67 46.60 46.62 47.76 46.38 46.12 47.55 48.41
51.18 48.32 52.45 51.34 48.33 47.01 46.04 46.01 46.51 50.40 50.21 50.78 50.42 51.11 50.42 48.73 50.34 48.66 48.97 50.78 51.76 51.67 51.78 52.73 45.52 45.30 41.12 43.62 44.88 44.25 46.31 46.42 45.73 41.57 41.26 41.53 42.63 45.09 44.41 44.59 45.70 45.55 46.97 46.96 44.75
50.80 47.74 48.40 45.93 48.08 46.63 46.51 46.50 45.83 46.57 50.42 51.63 50.66 49.95 48.91 47.44 47.58 47.43 49.50 50.80 51.20 52.93 51.71 51.65 46.71 45.00 46.02 45.79 46.11 45.91 44.09 44.23 43.18 42.79 40.26 42.08 42.04 43.41 45.08 45.70 46.54 46.65 45.93 44.81 46.11
49.66 49.15 50.06 47.57 46.19 47.07 46.18 46.91 45.85 46.91 48.22 48.13 49.07 49.67 50.36 48.40 48.25 46.79 48.77 49.22 49.13 51.45 50.58 49.35 46.62 46.55 44.68 45.79 45.51 43.19 43.02 43.47 42.75 42.64 42.52 42.12 41.57 45.95 47.27 47.45 45.73 45.60 46.04 47.32 46.29
50.58 51.22 49.61 44.53 46.81 47.32 46.80 47.24 47.00 47.56 49.43 50.61 49.30 50.17 49.45 50.00 52.19 52.73 52.89 52.15 50.91 49.37 48.55 47.96 47.52 44.31 40.84 43.26 43.28 39.60 41.96 43.00 43.23 44.62 43.22 40.62 43.74 46.98 46.47 46.29 45.80 46.66 47.02 45.13 44.89
MSLP
1017.46 1017.28 1017.18 1017.05 1017.07 1016.93 1016.67 1016.45 1016.21 1015.95 1015.71 1015.47 1015.28 1014.91 1014.62 1014.34 1013.76 1013.51 1012.12 1011.20 1010.88 1010.85 1010.98 1010.94 1010.92 1010.98 1010.95 1010.75 1010.89 1010.80 1010.04 1009.61 1009.91 1010.15 1009.99 1010.68 1010.86 1011.51 1011.48 1011.21 1011.38 1011.58 1011.81 1012.09 1013.51
1017.23 1017.15 1016.99 1016.93 1016.89 1016.72 1016.49 1016.27 1016.06 1015.81 1015.54 1015.30 1015.01 1014.70 1014.46 1014.19 1013.55 1012.14 1010.84 1010.85 1010.79 1010.98 1010.90 1010.85 1010.70 1010.69 1010.54 1010.61 1010.65 1010.22 1009.82 1009.47 1009.44 1009.69 1009.71 1010.00 1010.20 1010.48 1010.92 1010.95 1010.92 1011.38 1012.03 1012.58 1013.62
1017.20 1017.00 1016.88 1016.80 1016.64 1016.42 1016.24 1016.10 1015.92 1015.68 1015.37 1015.14 1014.89 1014.51 1014.18 1014.00 1012.90 1011.21 1010.59 1010.76 1011.05 1011.11 1010.89 1010.91 1010.85 1010.62 1010.34 1010.54 1010.45 1010.17 1009.39 1009.30 1009.18 1009.51 1009.70 1009.76 1009.98 1010.11 1010.01 1010.12 1009.62 1009.92 1011.60 1012.69 1013.23
1017.09 1016.90 1016.76 1016.65 1016.51 1016.31 1016.15 1016.01 1015.79 1015.51 1015.29 1015.06 1014.69 1014.33 1013.96 1013.59 1012.35 1010.92 1010.74 1010.81 1011.08 1010.97 1010.77 1010.71 1010.53 1010.30 1010.23 1010.06 1010.27 1009.86 1009.34 1009.21 1009.22 1009.43 1009.69 1009.62 1009.48 1009.52 1009.24 1008.25 1008.54 1009.78 1011.21 1012.23 1012.58
1016.91 1016.74 1016.59 1016.46 1016.28 1016.09 1015.90 1015.72 1015.52 1015.32 1015.13 1014.94 1014.65 1014.19 1013.66 1012.76 1011.48 1010.94 1010.97 1011.03 1010.97 1010.89 1010.74 1010.55 1010.31 1010.33 1009.98 1010.09 1010.06 1009.65 1009.10 1009.18 1009.11 1009.21 1009.41 1009.65 1009.42 1009.23 1008.83 1008.73 1009.06 1009.82 1011.19 1011.74 1012.09
1016.85 1016.64 1016.38 1016.15 1015.94 1015.76 1015.62 1015.50 1015.36 1015.18 1015.01 1014.81 1014.52 1014.18 1013.60 1012.18 1010.95 1010.87 1010.90 1010.95 1010.77 1010.74 1010.75 1010.56 1010.29 1010.26 1010.10 1010.02 1009.79 1009.73 1009.41 1008.95 1009.06 1009.21 1009.26 1009.07 1009.39 1009.66 1008.57 1008.99 1009.43 1009.95 1010.52 1011.19 1011.90
1016.84 1016.52 1016.24 1015.97 1015.73 1015.54 1015.41 1015.32 1015.19 1015.00 1014.81 1014.62 1014.40 1013.97 1013.25 1011.42 1010.68 1010.88 1010.85 1010.58 1010.61 1010.60 1010.46 1010.47 1010.35 1010.24 1010.13 1009.89 1010.02 1009.79 1009.16 1008.73 1009.24 1009.37 1009.28 1009.45 1009.42 1009.18 1009.28 1009.42 1009.67 1009.74 1010.14 1011.21 1012.02
1016.83 1016.42 1016.04 1015.71 1015.47 1015.27 1015.17 1015.07 1014.85 1014.64 1014.53 1014.41 1014.25 1013.77 1012.13 1010.51 1010.57 1010.59 1010.56 1010.38 1010.47 1010.56 1010.54 1010.40 1010.49 1010.30 1010.25 1010.23 1010.01 1009.68 1009.67 1009.13 1009.70 1009.54 1009.97 1009.97 1009.16 1009.79 1010.13 1009.82 1009.79 1010.03 1010.57 1011.67 1012.96
1016.73 1016.27 1015.88 1015.50 1015.18 1015.02 1014.88 1014.71 1014.43 1014.29 1014.30 1014.24 1014.09 1013.31 1011.20 1010.14 1010.22 1010.02 1010.05 1009.99 1010.00 1010.27 1010.41 1010.53 1010.50 1010.63 1010.57 1010.16 1010.02 1010.07 1009.58 1009.67 1009.88 1010.44 1010.22 1010.38 1010.40 1010.95 1010.87 1010.36 1010.17 1010.81 1011.30 1012.20 1013.60
1016.65 1016.18 1015.75 1015.27 1014.95 1014.79 1014.52 1014.38 1014.29 1014.13 1014.18 1014.04 1013.65 1013.16 1011.03 1010.46 1010.05 1009.81 1009.89 1009.82 1009.73 1009.86 1010.11 1010.22 1010.45 1010.55 1010.65 1010.26 1009.99 1010.16 1009.94 1010.04 1010.22 1010.70 1010.88 1011.04 1011.75 1011.88 1011.64 1011.21 1011.50 1011.70 1012.06 1013.14 1013.92
1016.55 1016.04 1015.56 1015.03 1014.69 1014.57 1014.13 1014.13 1014.40 1014.00 1013.54 1012.97 1012.54 1011.98 1010.95 1010.26 1010.16 1009.78 1009.70 1009.68 1009.83 1009.96 1010.13 1010.58 1010.24 1010.42 1010.66 1010.65 1010.62 1010.61 1010.47 1010.42 1010.58 1011.16 1011.44 1012.01 1012.25 1012.55 1012.50 1012.26 1012.32 1012.28 1012.63 1013.95 1014.78
1016.39 1015.81 1015.37 1014.88 1014.45 1014.40 1014.24 1013.72 1013.74 1013.61 1013.02 1012.22 1012.00 1011.56 1010.88 1010.60 1010.19 1009.76 1009.61 1009.74 1009.86 1010.04 1010.35 1010.49 1010.28 1010.80 1010.89 1010.85 1010.72 1010.66 1010.58 1010.60 1010.87 1011.27 1011.43 1012.02 1012.16 1012.72 1013.10 1013.46 1013.56 1013.45 1013.22 1014.47 1015.58
1016.35 1015.67 1015.08 1014.66 1014.28 1014.24 1013.87 1013.51 1013.21 1013.23 1012.94 1011.85 1011.31 1010.86 1010.48 1010.48 1010.07 1009.74 1009.69 1009.87 1010.03 1010.18 1010.43 1010.39 1010.87 1010.79 1010.77 1010.87 1010.70 1010.87 1010.86 1011.06 1011.30 1011.43 1011.80 1011.92 1011.94 1012.60 1013.43 1013.90 1014.19 1014.27 1014.59 1015.38 1016.42
1016.21 1015.56 1014.96 1014.49 1014.55 1014.02 1013.54 1013.23 1013.10 1013.10 1012.44 1011.56 1010.82 1010.22 1010.35 1010.12 1009.98 1009.77 1009.76 1009.91 1010.09 1010.41 1010.63 1010.70 1010.81 1010.72 1010.72 1010.91 1011.12 1011.03 1011.36 1011.47 1011.49 1011.58 1011.60 1012.36 1011.77 1012.58 1013.58 1014.11 1014.73 1015.33 1015.82 1016.52 1017.27
1016.05 1015.38 1014.83 1014.60 1014.01 1013.63 1013.47 1013.12 1013.03 1012.89 1012.03 1011.25 1010.33 1009.96 1010.07 1010.11 1010.16 1009.90 1009.96 1009.84 1010.39 1010.75 1010.98 1011.27 1011.05 1010.99 1010.99 1011.45 1011.53 1011.82 1011.86 1011.99 1011.93 1011.81 1012.19 1012.44 1012.58 1012.77 1013.65 1014.11 1015.24 1016.36 1017.15 1017.66 1018.22
1015.94 1015.22 1014.74 1014.28 1013.94 1013.36 1013.20 1013.02 1012.88 1012.72 1011.81 1010.98 1010.30 1010.08 1010.12 1010.24 1010.23 1010.22 1010.26 1010.42 1011.02 1011.14 1011.26 1011.46 1011.62 1011.54 1011.61 1011.82 1011.89 1012.12 1012.17 1012.28 1012.46 1012.38 1012.14 1012.96 1013.31 1012.71 1013.92 1015.01 1015.97 1017.44 1018.15 1018.68 1019.25
1015.68 1015.03 1014.62 1014.21 1013.82 1013.42 1013.14 1012.87 1013.00 1012.39 1012.08 1011.49 1010.90 1010.60 1010.50 1010.67 1010.72 1010.82 1011.29 1011.72 1011.91 1011.84 1012.01 1012.04 1012.08 1012.12 1012.14 1011.92 1012.16 1012.20 1012.27 1012.00 1012.11 1012.28 1012.66 1013.64 1013.91 1013.75 1014.89 1015.70 1016.48 1018.26 1019.36 1020.12 1020.67
1015.37 1014.84 1014.52 1014.02 1013.80 1013.47 1013.13 1013.22 1013.08 1012.89 1012.31 1011.96 1011.52 1011.23 1011.22 1011.47 1011.73 1011.92 1012.29 1012.74 1012.97 1012.89 1012.89 1012.87 1012.64 1012.69 1012.74 1012.75 1012.89 1012.92 1013.42 1013.28 1012.95 1013.17 1013.21 1014.00 1013.80 1014.47 1015.80 1016.77 1017.79 1019.27 1020.41 1021.39 1021.82
1015.20 1014.68 1014.35 1013.97 1013.72 1013.48 1013.42 1013.56 1013.39 1013.15 1012.83 1012.29 1011.82 1011.72 1011.92 1012.03 1012.16 1012.57 1013.21 1013.51 1013.89 1013.85 1013.72 1013.69 1013.43 1013.39 1013.45 1013.51 1013.62 1013.71 1013.97 1014.86 1014.50 1014.80 1014.24 1013.77 1014.52 1015.38 1016.34 1017.41 1018.65 1019.86 1020.95 1021.78 1022.33
1016.14 1015.39 1014.70 1014.14 1013.87 1013.59 1013.86 1014.27 1014.06 1013.64 1013.09 1012.64 1012.27 1012.34 1012.38 1012.54 1012.69 1013.07 1013.62 1014.22 1014.32 1014.54 1014.46 1014.74 1014.36 1014.12 1014.02 1014.11 1014.36 1014.26 1015.14 1015.11 1015.02 1014.83 1014.36 1014.10 1014.79 1014.94 1016.34 1017.47 1018.92 1020.14 1021.13 1021.99 1022.36
1016.53 1015.67 1014.69 1014.21 1013.91 1014.12 1014.57 1014.78 1014.40 1013.80 1013.54 1013.10 1012.74 1012.76 1013.04 1013.23 1013.44 1013.80 1014.37 1014.76 1014.78 1015.05 1014.96 1015.27 1015.37 1014.93 1014.70 1015.05 1015.22 1015.19 1015.46 1016.11 1016.55 1016.39 1015.76 1015.16 1014.99 1016.25 1016.90 1017.54 1018.95 1020.44 1021.42 1022.19 1022.88
1017.50 1016.35 1015.05 1014.30 1014.86 1015.94 1015.49 1015.41 1015.09 1014.29 1013.91 1013.45 1013.27 1013.33 1013.54 1013.92 1014.18 1014.45 1014.77 1015.20 1015.45 1015.42 1015.66 1016.35 1016.28 1015.76 1015.68 1016.08 1016.24 1016.13 1016.51 1016.88 1016.96 1017.04 1017.09 1017.14 1016.65 1017.73 1017.83 1018.27 1019.67 1020.99 1022.06 1022.85 1023.44
1019.03 1017.93 1015.63 1015.10 1016.08 1016.59 1016.33 1015.75 1015.33 1014.79 1014.56 1014.21 1014.04 1014.10 1014.21 1014.66 1015.12 1015.13 1015.41 1015.88 1015.87 1016.00 1016.41 1016.66 1016.93 1016.45 1016.11 1016.62 1016.63 1016.56 1017.09 1017.68 1018.05 1018.22 1017.65 1017.60 1017.27 1018.81 1019.49 1020.09 1020.86 1021.68 1022.65 1023.35 1023.77
1019.69 1018.88 1017.78 1017.32 1018.48 1017.64 1017.21 1016.72 1015.97 1015.53 1015.27 1015.08 1014.89 1014.67 1014.82 1015.33 1015.56 1015.70 1015.95 1016.26 1016.37 1016.73 1017.11 1017.01 1017.32 1016.96 1016.74 1016.88 1017.31 1017.16 1017.49 1017.99 1018.23 1018.31 1018.01 1018.14 1018.55 1019.37 1020.45 1021.14 1021.86 1022.65 1023.23 1023.59 1023.92
1020.71 1020.94 1020.73 1019.59 1018.99 1018.75 1018.18 1017.73 1016.96 1016.40 1015.96 1015.66 1015.46 1015.67 1015.57 1015.88 1016.14 1016.34 1016.50 1016.59 1016.82 1017.16 1017.42 1017.44 1017.42 1017.55 1017.24 1017.52 1017.77 1017.80 1018.11 1018.38 1018.50 1018.95 1019.03 1019.21 1019.65 1020.50 1021.02 1021.61 1022.33 1023.09 1023.59 1024.09 1024.30
1021.93 1021.79 1021.20 1020.58 1020.02 1019.21 1018.92 1018.65 1017.95 1017.46 1017.06 1016.48 1016.43 1016.55 1016.30 1016.61 1016.87 1016.80 1016.92 1017.11 1017.27 1017.42 1017.67 1018.07 1017.96 1018.08 1017.76 1017.93 1018.19 1018.35 1018.88 1019.10 1019.30 1019.52 1019.70 1020.09 1020.60 1021.51 1021.96 1022.42 1022.89 1023.56 1023.89 1024.12 1024.40
1022.92 1022.65 1021.83 1021.07 1020.32 1019.71 1019.71 1019.30 1018.75 1018.37 1017.92 1017.65 1017.45 1017.32 1017.49 1017.83 1017.66 1017.42 1017.44 1017.65 1017.95 1018.10 1018.07 1018.37 1018.33 1018.54 1018.17 1018.62 1018.72 1019.19 1019.61 1019.73 1020.04 1020.32 1020.45 1020.38 1021.17 1021.71 1022.07 1022.67 1023.25 1023.73 1024.16 1024.48 1024.85
Wind_Speed
6 6 6 6 6 7 7 7 8 10 10 11 11 11 11 11 12 3 2 1 3 5 2 2 3 3 2 3 2 1 2 2 5 6 1 2 7 8 4 4 6 8 3 4 20
7 7 6 6 7 7 7 8 9 10 11 11 11 12 11 10 3 1 2 5 4 5 1 4 3 3 3 2 2 1 0 2 3 5 3 5 10 10 8 11 13 8 4 17 20
7 7 7 7 8 8 8 8 9 10 11 11 11 11 10 6 3 3 7 7 5 4 2 1 1 1 3 1 2 3 1 2 3 7 5 7 8 8 8 13 18 20 15 21 20
7 7 7 7 8 8 8 9 9 10 10 10 11 12 12 4 3 2 6 8 7 2 1 1 2 2 2 3 1 3 5 4 1 1 6 8 6 8 16 14 19 15 19 21 22
9 8 8 8 9 8 9 9 10 10 9 10 11 12 3 2 0 1 5 6 4 1 2 3 4 1 4 1 2 2 5 3 8 2 6 6 11 6 19 10 6 13 18 23 21
10 9 9 9 10 9 10 10 10 10 9 9 9 11 2 1 3 1 4 2 2 2 1 2 2 1 2 2 2 4 6 10 2 2 3 7 6 6 14 14 8 17 21 21 22
11 10 10 9 9 10 10 9 9 10 9 8 7 2 1 5 3 1 5 2 2 3 2 2 2 2 1 0 3 3 7 5 9 6 2 2 4 9 6 14 14 17 19 19 20
12 11 10 10 9 9 9 9 9 9 8 6 2 1 5 3 2 7 4 3 3 3 2 1 4 2 2 1 2 3 2 5 8 13 4 3 4 7 15 9 17 16 13 14 13
14 12 11 11 10 9 8 9 9 5 3 3 1 1 4 5 1 1 3 2 2 3 2 4 2 3 1 2 1 5 2 4 2 8 5 3 6 17 13 9 12 9 11 12 12
15 13 12 11 10 8 10 4 4 3 2 3 1 2 2 4 4 4 1 0 2 2 2 3 4 1 2 1 2 1 1 1 3 7 10 6 8 11 13 2 2 5 8 11 13
17 14 13 12 10 7 2 2 1 1 1 3 3 3 5 7 2 1 1 3 1 5 3 3 4 4 2 0 2 3 2 2 2 5 3 5 6 12 9 11 7 2 7 8 10
19 17 14 12 10 3 2 4 2 2 5 3 5 6 5 2 3 2 2 0 3 4 1 2 10 4 3 3 4 4 2 5 1 4 3 2 6 5 13 11 9 8 6 8 11
19 18 16 13 3 2 1 4 3 3 1 4 3 3 2 5 0 1 3 2 2 3 4 7 4 3 4 4 3 3 5 4 4 5 2 4 4 3 5 9 10 12 6 7 9
22 19 16 14 0 0 0 2 3 6 2 2 1 0 3 2 2 1 1 1 2 3 1 3 5 2 5 5 4 3 3 3 4 5 9 3 7 1 6 8 12 11 9 7 10
23 20 16 6 0 1 4 6 6 2 2 1 2 2 1 1 1 4 2 2 2 2 2 3 4 6 7 4 2 4 5 4 4 5 4 2 5 3 4 4 7 8 7 8 9
24 20 12 1 1 3 8 0 1 1 2 2 1 1 3 2 2 1 2 6 1 3 4 3 2 3 4 2 3 1 4 2 1 1 5 3 4 0 2 4 2 6 7 9 12
25 19 2 2 2 7 5 1 1 0 2 5 3 2 1 2 3 3 4 6 3 1 3 3 3 2 3 1 2 9 9 8 3 4 5 2 5 3 1 3 1 7 10 11 11
27 10 0 1 7 4 1 2 2 2 3 3 4 3 3 4 5 5 3 3 6 2 2 2 3 5 5 4 6 6 4 6 9 6 11 3 4 3 3 6 11 12 10 11 11
19 3 2 8 5 1 3 2 2 1 3 6 0 3 2 2 2 3 4 3 4 4 2 2 0 2 2 4 5 2 3 2 3 2 5 2 1 4 4 7 8 9 10 11 10
3 3 3 13 5 3 4 1 0 2 4 2 1 1 2 4 2 2 2 1 2 5 2 2 3 3 3 2 8 4 2 2 2 6 9 3 5 6 7 8 7 7 9 10 10
3 2 4 11 1 5 2 0 2 3 3 2 2 2 2 2 3 2 2 2 3 2 4 2 1 2 2 5 5 3 4 4 1 3 5 8 5 3 6 7 8 8 10 10 8
3 2 6 6 3 1 1 1 3 3 5 3 2 2 2 2 3 2 3 2 5 1 2 2 2 3 4 3 2 2 2 3 3 4 4 5 7 9 7 5 10 11 10 7 7
3 3 4 4 2 2 2 2 2 7 5 5 2 2 3 3 3 1 3 2 6 3 2 4 1 4 2 4 3 3 2 3 2 1 8 9 5 8 8 9 9 11 8 5 2
2 3 5 6 2 2 2 3 4 5 3 2 3 1 3 3 6 3 2 4 3 4 4 3 3 4 6 5 2 7 8 3 4 6 9 9 13 6 6 7 8 6 4 1 4
4 3 2 4 5 4 1 2 3 6 6 7 3 7 2 3 2 3 2 2 3 2 2 0 4 4 4 3 4 7 5 4 2 3 4 8 7 5 2 4 4 4 1 4 5
3 2 1 1 3 1 6 5 5 4 5 4 5 8 5 5 4 3 1 1 2 1 1 1 3 3 4 2 2 3 3 2 3 1 1 1 4 3 2 5 5 1 4 6 5
2 1 3 3 3 0 3 3 5 3 3 6 1 3 8 4 4 3 3 4 3 3 3 2 4 4 8 1 4 3 4 4 3 3 3 3 2 2 1 1 2 5 5 3 5
Wind_Direction
325 327 319 319 308 308 313 312 308 306 305 304 310 312 317 321 305 214 260 105 189 158 152 350 118 26 118 111 108 173 150 147 140 189 128 148 197 159 208 196 187 192 196 157 145
340 331 326 315 305 304 306 306 305 302 303 309 314 312 316 326 293 285 250 185 136 159 34 25 25 16 97 98 113 223 54 187 193 177 219 202 213 162 179 197 210 193 113 142 150
338 332 324 314 309 307 306 304 298 297 303 312 310 312 317 312 259 23 348 198 203 215 84 68 61 22 100 172 145 167 309 209 268 244 217 210 214 186 186 205 212 203 164 162 164
338 328 318 309 302 301 298 294 292 297 304 311 313 314 317 245 74 346 11 128 165 155 20 26 42 95 93 108 39 254 251 250 331 254 168 183 176 197 194 214 218 205 170 171 175
344 327 312 302 297 295 293 294 295 300 306 309 314 322 313 342 328 50 112 137 133 109 15 1 38 87 74 3 147 261 327 324 306 297 194 172 197 206 219 222 200 181 172 184 186
346 331 318 307 302 297 296 297 297 298 299 307 316 315 338 325 120 83 157 168 167 161 153 268 354 154 83 354 8 328 305 312 1 115 183 162 175 209 229 216 195 180 188 192 191
343 336 326 311 300 294 293 297 296 294 296 305 313 322 56 248 155 327 197 217 187 198 302 218 186 225 209 112 330 336 340 344 30 5 15 240 188 222 323 200 196 201 199 191 194
343 336 329 319 305 298 297 297 293 287 295 289 253 239 264 239 272 268 191 227 208 226 239 288 185 108 340 294 26 24 84 350 40 3 59 300 273 23 341 201 215 207 197 191 181
343 337 332 323 310 309 306 303 289 280 190 165 179 15 295 310 302 351 212 259 221 127 125 113 99 62 99 32 93 16 359 331 64 39 336 338 341 342 341 263 229 213 192 175 149
344 336 330 319 313 317 308 258 99 150 138 191 172 249 243 328 304 328 138 245 13 340 139 42 47 77 102 231 64 328 5 327 341 22 35 67 26 5 10 19 197 183 182 153 164
345 339 331 320 315 323 307 186 341 106 69 250 296 267 287 306 259 72 165 114 67 62 32 17 65 38 326 231 97 126 102 340 334 26 86 74 72 37 27 35 19 234 189 143 142
343 340 337 326 311 290 242 76 132 339 313 254 258 272 270 265 306 17 181 129 45 33 -0 164 46 10 109 141 130 135 86 27 252 26 235 135 58 47 36 28 2 325 253 159 133
344 339 337 336 360 173 43 117 108 165 255 301 223 235 288 174 229 303 197 116 67 55 46 58 23 62 142 116 72 69 27 358 326 343 88 311 221 57 34 47 33 30 58 79 121
343 339 338 329 229 308 64 359 309 190 13 355 256 168 145 234 26 292 190 75 67 39 104 48 347 78 71 63 357 34 343 292 303 303 307 343 307 43 10 36 44 37 44 85 118
341 337 335 330 79 106 355 343 127 219 84 332 129 94 94 224 320 41 8 56 63 46 279 43 38 59 64 34 340 21 15 357 324 291 299 117 265 91 357 19 38 44 59 85 108
339 335 330 171 242 1 334 37 214 268 76 55 64 140 139 30 34 8 44 44 66 80 26 68 19 28 3 73 60 291 273 290 126 251 255 51 318 247 3 357 39 75 84 103 104
335 332 322 307 343 330 328 47 57 60 323 7 4 359 83 30 57 20 49 32 18 345 35 354 31 354 4 0 186 350 329 315 289 289 301 58 250 354 346 357 64 124 81 68 79
330 324 275 33 317 308 44 71 106 39 358 8 355 67 84 1 40 30 83 94 45 42 89 345 196 10 357 11 318 343 322 304 305 303 309 170 237 95 35 89 97 91 92 81 78
320 350 30 345 337 330 80 100 158 117 336 325 275 84 60 53 102 83 46 75 31 1 25 332 281 346 43 355 327 37 340 358 279 217 265 314 157 174 143 123 116 100 93 93 100
4 344 19 336 339 58 71 135 283 246 313 285 62 32 90 18 88 82 52 24 99 23 307 119 285 42 353 174 62 31 80 279 1 298 300 281 289 297 214 195 152 127 114 114 112
32 51 354 343 322 49 77 145 293 276 296 233 207 119 87 75 57 70 68 61 20 67 81 106 321 358 303 38 3 66 50 44 311 286 297 306 304 18 308 238 171 136 128 114 90
7 75 355 333 56 15 77 322 329 333 6 347 92 87 111 74 77 101 127 39 346 317 63 46 85 325 347 307 287 78 75 49 339 309 289 291 286 358 339 147 139 131 122 100 72
29 303 335 320 97 52 330 345 353 9 21 6 67 25 51 95 117 98 91 14 4 58 115 163 69 318 316 168 157 336 72 60 84 252 268 293 311 34 68 92 111 123 115 102 69
4 6 353 44 18 43 18 7 349 7 61 359 24 112 108 82 38 114 86 30 26 77 86 108 137 246 289 315 328 295 303 330 267 275 306 286 317 26 68 102 117 113 110 212 54
10 61 14 11 26 31 5 3 0 5 358 17 78 39 61 104 74 66 47 35 76 85 67 355 241 205 251 255 252 279 314 334 237 335 258 344 339 12 86 122 107 122 12 355 336
15 353 46 41 295 16 8 23 16 357 353 16 72 34 53 84 39 123 102 34 313 11 63 51 246 206 261 197 271 250 35 121 103 51 231 340 64 12 74 111 99 320 282 300 3
43 158 288 357 14 51 36 350 359 312 82 53 13 98 69 46 333 325 307 1 355 321 295 255 186 192 271 317 300 201 77 78 87 43 317 359 42 140 160 326 296 296 327 17 2